Bat Cave, NC

7:35 PM EDT on October 01, 2016 (GMT -0400)
Asheville Regional

Weather History for KAVL - November, 2013

Change the Weather History Date:

Saturday, November 2, 2013

  Actual Average Record
Temperature  
Mean Temperature 52 °F 51 °F  
Max Temperature 61 °F 64 °F 81 °F (1974)
Min Temperature 42 °F 39 °F 20 °F (1954)
Degree Days  
Heating Degree Days 13 14  
Month to date heating degree days 14 27  
Since 1 July heating degree days 265 362  
Cooling Degree Days 0 0  
Month to date cooling degree days 0 0  
Year to date cooling degree days 860 862  
Growing Degree Days 2 (Base 50)    
Moisture  
Dew Point 39 °F    
Average Humidity 70    
Maximum Humidity 96    
Minimum Humidity 43    
Precipitation  
Precipitation T in 0.10 in 2.93 in (1979)
Month to date precipitation 0.11 0.21  
Year to date precipitation 64.11 38.54  
Snow  
Snow 0.00 in 0.00 in 0.60 in (1954)
Month to date snowfall 0.0 0.0  
Since 1 July snowfall T 0.0  
Since 1 September snowfall T 0.0  
Snow Depth 0.00 in    
Sea Level Pressure  
Sea Level Pressure 29.85 in    
Wind  
Wind Speed 9 mph (NNW)    
Max Wind Speed 26 mph    
Max Gust Speed 37 mph    
Visibility 10 miles    
Events Rain    
T = Trace of Precipitation, MM = Missing Value Source: NWS Daily Summary

Daily Weather History Graph

Daily Weather History Graph

Search for Another Location

Airport or City:

Trip Planner

Search our weather history database for the weather conditions in past years. The results will help you decide how hot, cold, wet, or windy it might be!

Date:

Astronomy

Nov. 02, 2013 Rise Set
Actual Time 7:52 AM EDT 6:33 PM EDT
Civil Twilight 7:26 AM EDT 7:00 PM EDT
Nautical Twilight 6:56 AM EDT 7:30 PM EDT
Astronomical Twilight 6:26 AM EDT 8:00 PM EDT
Moon 6:50 AM EDT (11/2) 6:03 PM EDT (11/2)
Length of Visible Light 11h 33m
Length of Day
10h 40m
Waning Crescent, 1% of the Moon is Illuminated
Nov 2
Waning Crescent
Nov 3
New
Nov 10
First Quarter
Nov 17
Full
Nov 25
Last Quarter

Hourly Weather History & Observations

Time (EDT) Temp. Windchill Dew Point Humidity Pressure Visibility Wind Dir Wind Speed Gust Speed Precip Events Conditions
12:54 AM 52.0 °F - 45.0 °F 77% 29.76 in 10.0 mi Calm Calm - N/A   Clear
1:54 AM 52.0 °F - 43.0 °F 71% 29.76 in 10.0 mi NNW 6.9 mph - N/A   Clear
2:54 AM 48.9 °F - 43.0 °F 80% 29.77 in 10.0 mi Calm Calm - N/A   Clear
3:54 AM 46.0 °F - 42.1 °F 86% 29.76 in 10.0 mi Calm Calm - N/A   Clear
4:54 AM 46.0 °F 43.1 °F 41.0 °F 83% 29.77 in 10.0 mi NNW 5.8 mph - N/A   Clear
5:54 AM 43.0 °F - 41.0 °F 93% 29.79 in 10.0 mi Calm Calm - N/A   Clear
6:54 AM 46.9 °F - 41.0 °F 80% 29.80 in 10.0 mi North 4.6 mph - N/A   Clear
7:54 AM 44.1 °F - 39.9 °F 85% 29.83 in 10.0 mi Calm Calm - N/A   Clear
8:54 AM 50.0 °F - 41.0 °F 71% 29.84 in 10.0 mi Calm Calm - N/A   Clear
9:54 AM 54.0 °F - 43.0 °F 66% 29.84 in 10.0 mi NNW 10.4 mph - N/A   Clear
10:54 AM 57.0 °F - 42.1 °F 57% 29.85 in 10.0 mi NNW 11.5 mph - N/A   Clear
11:54 AM 59.0 °F - 39.9 °F 49% 29.85 in 10.0 mi NNW 11.5 mph - N/A   Clear
12:54 PM 60.1 °F - 39.0 °F 46% 29.83 in 10.0 mi North 12.7 mph 16.1 mph N/A   Scattered Clouds
1:54 PM 53.1 °F - 42.1 °F 66% 29.85 in 10.0 mi NW 18.4 mph 32.2 mph 0.00 in Rain Light Rain
2:54 PM 53.1 °F - 37.9 °F 57% 29.83 in 10.0 mi NW 8.1 mph 24.2 mph 0.00 in Rain Light Rain
3:54 PM 57.9 °F - 37.0 °F 46% 29.84 in 10.0 mi North 9.2 mph - 0.00 in   Scattered Clouds
4:54 PM 57.0 °F - 36.0 °F 45% 29.84 in 10.0 mi North 10.4 mph - N/A   Mostly Cloudy
5:54 PM 53.1 °F - 35.1 °F 50% 29.89 in 10.0 mi NNW 12.7 mph - N/A   Partly Cloudy
6:54 PM 51.1 °F - 35.1 °F 54% 29.91 in 10.0 mi North 6.9 mph - N/A   Scattered Clouds
7:54 PM 48.0 °F - 35.1 °F 61% 29.95 in 10.0 mi NW 8.1 mph - N/A   Partly Cloudy
8:54 PM 48.0 °F - 35.1 °F 61% 29.96 in 10.0 mi NW 12.7 mph - N/A   Clear
9:54 PM 48.0 °F - 36.0 °F 63% 29.97 in 10.0 mi NNW 12.7 mph 20.7 mph N/A   Clear
10:54 PM 46.9 °F - 36.0 °F 66% 29.99 in 10.0 mi NW 21.9 mph 27.6 mph N/A   Clear
11:54 PM 45.0 °F 39.3 °F 36.0 °F 71% 30.01 in 10.0 mi North 11.5 mph - N/A   Clear